VRBEM YBBN-NCRG

Flight info

Callsign VRBEM
Flight time 5h 5m
Altitude 39000
Route GUMKI Y98 BONEY G329 NF R582 OMBOL ANIVA1A
Aircraft B77L/H-SDE1E2E3FGHIJ2J3J4J5M1RWXY/LB1D1

Departure

Time 2026-04-26 09:08
Airport Brisbane International Airport (YBBN)

Arrival

Time 2026-04-26 14:13
Airport Rarotonga International Airport (NCRG)
Time Latitude Longitude Altitude Speed Heading
2026-04-26 08:33 -27.39847 153.11381 22 ft 0 kts 231°
2026-04-26 08:56 -27.39841 153.11390 25 ft 3 kts 231°
2026-04-26 08:56 -27.39824 153.11413 27 ft 3 kts 230°
2026-04-26 08:57 -27.39811 153.11430 27 ft 3 kts 232°
2026-04-26 08:57 -27.39799 153.11449 26 ft 3 kts 239°
2026-04-26 08:57 -27.39790 153.11468 28 ft 3 kts 254°
2026-04-26 08:57 -27.39787 153.11485 28 ft 3 kts 285°
2026-04-26 08:58 -27.39793 153.11503 26 ft 3 kts 297°
2026-04-26 08:58 -27.39803 153.11522 26 ft 3 kts 304°
2026-04-26 08:58 -27.39815 153.11540 26 ft 3 kts 311°
2026-04-26 08:58 -27.39828 153.11556 25 ft 3 kts 320°
2026-04-26 08:59 -27.39844 153.11569 24 ft 3 kts 335°
2026-04-26 08:59 -27.39855 153.11574 25 ft 3 kts 347°
2026-04-26 08:59 -27.39873 153.11577 25 ft 3 kts
2026-04-26 08:59 -27.39892 153.11571 28 ft 3 kts 26°
2026-04-26 09:00 -27.39909 153.11560 27 ft 3 kts 33°
2026-04-26 09:00 -27.39926 153.11548 26 ft 2 kts 27°
2026-04-26 09:00 -27.39927 153.11547 26 ft 0 kts 27°
2026-04-26 09:02 -27.39895 153.11566 24 ft 13 kts 27°
2026-04-26 09:03 -27.39861 153.11651 25 ft 13 kts 93°
2026-04-26 09:03 -27.39807 153.11726 26 ft 13 kts 29°
2026-04-26 09:03 -27.39726 153.11773 23 ft 13 kts 26°
2026-04-26 09:03 -27.39621 153.11835 27 ft 26 kts 27°
2026-04-26 09:04 -27.39432 153.11942 25 ft 30 kts 26°
2026-04-26 09:04 -27.39247 153.12049 27 ft 27 kts 27°
2026-04-26 09:04 -27.39083 153.12142 23 ft 26 kts 27°
2026-04-26 09:04 -27.38922 153.12234 25 ft 26 kts 27°
2026-04-26 09:05 -27.38760 153.12327 25 ft 26 kts 27°
2026-04-26 09:05 -27.38597 153.12420 25 ft 26 kts 27°
2026-04-26 09:05 -27.38434 153.12513 24 ft 26 kts 26°
2026-04-26 09:05 -27.38272 153.12607 24 ft 26 kts 27°
2026-04-26 09:06 -27.38109 153.12700 24 ft 26 kts 26°
2026-04-26 09:06 -27.37995 153.12813 26 ft 17 kts 94°
2026-04-26 09:06 -27.38041 153.12929 26 ft 16 kts 117°
2026-04-26 09:06 -27.38094 153.13038 31 ft 14 kts 128°
2026-04-26 09:07 -27.38142 153.13043 29 ft 5 kts 202°
2026-04-26 09:07 -27.38278 153.12967 27 ft 54 kts 206°
2026-04-26 09:07 -27.38846 153.12642 29 ft 126 kts 207°
2026-04-26 09:07 -27.39790 153.12106 124 ft 170 kts 206°
2026-04-26 09:08 -27.40861 153.11500 766 ft 175 kts 204°
2026-04-26 09:08 -27.41943 153.10939 1583 ft 169 kts 189°
2026-04-26 09:08 -27.43073 153.11137 2092 ft 174 kts 151°
2026-04-26 09:08 -27.44233 153.11830 2353 ft 203 kts 151°
2026-04-26 09:09 -27.45586 153.12607 2700 ft 231 kts 151°
2026-04-26 09:09 -27.47023 153.13433 3463 ft 241 kts 152°
2026-04-26 09:09 -27.48543 153.14303 4322 ft 246 kts 153°
2026-04-26 09:09 -27.50231 153.14759 5066 ft 259 kts 178°
2026-04-26 09:10 -27.52031 153.14412 5882 ft 266 kts 189°
2026-04-26 09:10 -27.53845 153.13948 6747 ft 271 kts 189°
2026-04-26 09:10 -27.55695 153.13477 7545 ft 274 kts 190°
2026-04-26 09:10 -27.57542 153.12842 7987 ft 279 kts 195°
2026-04-26 09:11 -27.59400 153.12152 7990 ft 279 kts 187°
2026-04-26 09:11 -27.61301 153.12262 8019 ft 273 kts 157°
2026-04-26 09:11 -27.62851 153.13388 8478 ft 270 kts 134°
2026-04-26 09:11 -27.64041 153.15022 9381 ft 270 kts 124°
2026-04-26 09:12 -27.65131 153.16773 10253 ft 274 kts 124°
2026-04-26 09:12 -27.66237 153.18578 10825 ft 290 kts 124°
2026-04-26 09:12 -27.67444 153.20546 11026 ft 319 kts 124°
2026-04-26 09:12 -27.68777 153.22698 11247 ft 348 kts 124°
2026-04-26 09:13 -27.70167 153.24927 11816 ft 363 kts 124°
2026-04-26 09:13 -27.71622 153.27290 12643 ft 367 kts 121°
2026-04-26 09:13 -27.72607 153.29973 13391 ft 378 kts 102°
2026-04-26 09:13 -27.72793 153.32942 14290 ft 380 kts 90°
2026-04-26 09:14 -27.72787 153.35961 15110 ft 387 kts 90°
2026-04-26 09:14 -27.72784 153.39016 16043 ft 391 kts 91°
2026-04-26 09:14 -27.72792 153.42106 16955 ft 395 kts 91°
2026-04-26 09:14 -27.72811 153.45229 17809 ft 401 kts 91°
2026-04-26 09:15 -27.72838 153.48400 18620 ft 407 kts 92°
2026-04-26 09:15 -27.72868 153.51623 19308 ft 413 kts 92°
2026-04-26 09:15 -27.72912 153.54893 19975 ft 420 kts 93°
2026-04-26 09:15 -27.73025 153.58218 20627 ft 426 kts 94°
2026-04-26 09:16 -27.73174 153.61594 21282 ft 433 kts 95°
2026-04-26 09:16 -27.73332 153.64963 21924 ft 439 kts 95°
2026-04-26 09:16 -27.73493 153.68428 22568 ft 445 kts 95°
2026-04-26 09:16 -27.73649 153.71946 23190 ft 452 kts 95°
2026-04-26 09:17 -27.73802 153.75511 23824 ft 458 kts 95°
2026-04-26 09:17 -27.73951 153.79126 24336 ft 464 kts 95°
2026-04-26 09:17 -27.74099 153.82796 24834 ft 470 kts 95°
2026-04-26 09:17 -27.74246 153.86510 25329 ft 476 kts 94°
2026-04-26 09:18 -27.74392 153.90228 25824 ft 482 kts 94°
2026-04-26 09:18 -27.74539 153.94031 26333 ft 487 kts 94°
2026-04-26 09:18 -27.74688 153.97875 26827 ft 493 kts 94°
2026-04-26 09:18 -27.74837 154.01764 27311 ft 498 kts 94°
2026-04-26 09:19 -27.74987 154.05683 27770 ft 504 kts 94°
2026-04-26 09:19 -27.75138 154.09668 28222 ft 509 kts 94°
2026-04-26 09:19 -27.75289 154.13678 28684 ft 514 kts 94°
2026-04-26 09:19 -27.75440 154.17725 29121 ft 519 kts 94°
2026-04-26 09:20 -27.75592 154.21824 29540 ft 524 kts 94°
2026-04-26 09:20 -27.75744 154.25951 29955 ft 528 kts 94°
2026-04-26 09:20 -27.75895 154.30110 30319 ft 532 kts 94°
2026-04-26 09:20 -27.76046 154.34295 30764 ft 533 kts 94°
2026-04-26 09:21 -27.76195 154.38464 31336 ft 530 kts 94°
2026-04-26 09:21 -27.76341 154.42606 31902 ft 528 kts 94°
2026-04-26 09:21 -27.76487 154.46741 32420 ft 527 kts 94°
2026-04-26 09:21 -27.76631 154.50879 32883 ft 526 kts 94°
2026-04-26 09:22 -27.76774 154.55003 33346 ft 526 kts 93°
2026-04-26 09:22 -27.76917 154.59134 33817 ft 526 kts 93°
2026-04-26 09:22 -27.77056 154.63207 34266 ft 525 kts 93°
2026-04-26 09:22 -27.77196 154.67373 34656 ft 524 kts 93°
2026-04-26 09:23 -27.77334 154.71475 35028 ft 524 kts 93°
2026-04-26 09:23 -27.77471 154.75602 35387 ft 524 kts 93°
2026-04-26 09:23 -27.77606 154.79704 35745 ft 523 kts 93°
2026-04-26 09:23 -27.77738 154.83764 36114 ft 523 kts 93°
2026-04-26 09:24 -27.77871 154.87864 36477 ft 522 kts 92°
2026-04-26 09:24 -27.78002 154.91974 36814 ft 522 kts 92°
2026-04-26 09:24 -27.78132 154.96065 37114 ft 523 kts 92°
2026-04-26 09:25 -27.78391 155.04329 37177 ft 527 kts 92°
2026-04-26 09:25 -27.78643 155.12555 37169 ft 521 kts 92°
2026-04-26 09:26 -27.78888 155.20715 37177 ft 519 kts 92°
2026-04-26 09:26 -27.79128 155.28859 37176 ft 519 kts 92°
2026-04-26 09:27 -27.79364 155.37007 37178 ft 519 kts 92°
2026-04-26 09:27 -27.79594 155.45115 37181 ft 520 kts 92°
2026-04-26 09:28 -27.79821 155.53285 37186 ft 521 kts 92°
2026-04-26 09:28 -27.80043 155.61463 37182 ft 521 kts 92°
2026-04-26 09:29 -27.80260 155.69655 37180 ft 522 kts 92°
2026-04-26 09:29 -27.80474 155.77861 37178 ft 523 kts 92°
2026-04-26 09:30 -27.80683 155.86069 37171 ft 523 kts 92°
2026-04-26 09:30 -27.81208 155.94266 37177 ft 522 kts 100°
2026-04-26 09:31 -27.82424 156.02353 37167 ft 522 kts 101°
2026-04-26 09:31 -27.83684 156.10425 37176 ft 522 kts 101°
2026-04-26 09:32 -27.84897 156.18454 37169 ft 522 kts 101°
2026-04-26 09:32 -27.86087 156.26551 37177 ft 521 kts 100°
2026-04-26 09:33 -27.87263 156.34640 37172 ft 521 kts 100°
2026-04-26 09:33 -27.88435 156.42716 37177 ft 521 kts 100°
2026-04-26 09:34 -27.89604 156.50797 37172 ft 521 kts 100°
2026-04-26 09:34 -27.90771 156.58886 37176 ft 521 kts 100°
2026-04-26 09:35 -27.91931 156.66969 37174 ft 521 kts 100°
2026-04-26 09:35 -27.93088 156.75057 37173 ft 521 kts 100°
2026-04-26 09:36 -27.94241 156.83159 37172 ft 522 kts 100°
2026-04-26 09:36 -27.95383 156.91216 37174 ft 522 kts 100°
2026-04-26 09:37 -27.96528 156.99336 37177 ft 523 kts 100°
2026-04-26 09:37 -27.97671 157.07471 37177 ft 524 kts 100°
2026-04-26 09:38 -27.98813 157.15634 37175 ft 524 kts 100°
2026-04-26 09:38 -27.99947 157.23777 37177 ft 524 kts 100°
2026-04-26 09:39 -28.01071 157.31885 37176 ft 525 kts 100°
2026-04-26 09:39 -28.02198 157.40051 37174 ft 525 kts 100°
2026-04-26 09:40 -28.03320 157.48222 37169 ft 525 kts 100°
2026-04-26 09:40 -28.04439 157.56401 37173 ft 525 kts 100°
2026-04-26 09:41 -28.05553 157.64583 37169 ft 525 kts 99°
2026-04-26 09:41 -28.06661 157.72760 37170 ft 525 kts 99°
2026-04-26 09:42 -28.07764 157.80936 37156 ft 525 kts 99°
2026-04-26 09:42 -28.08855 157.89063 37157 ft 525 kts 99°
2026-04-26 09:43 -28.09949 157.97242 37174 ft 525 kts 99°
2026-04-26 09:43 -28.11036 158.05412 37173 ft 525 kts 99°
2026-04-26 09:44 -28.12118 158.13586 37174 ft 525 kts 99°
2026-04-26 09:44 -28.13195 158.21755 37170 ft 524 kts 99°
2026-04-26 09:45 -28.14267 158.29928 37166 ft 524 kts 99°
2026-04-26 09:45 -28.15334 158.38099 37180 ft 524 kts 99°
2026-04-26 09:46 -28.16396 158.46270 37170 ft 524 kts 99°
2026-04-26 09:46 -28.17451 158.54430 37164 ft 524 kts 99°
2026-04-26 09:47 -28.18504 158.62607 37166 ft 524 kts 99°
2026-04-26 09:47 -28.19374 158.69397 37175 ft 524 kts 99°
2026-04-26 09:48 -28.20417 158.77576 37163 ft 524 kts 99°
2026-04-26 09:48 -28.21455 158.85747 37161 ft 524 kts 98°
2026-04-26 09:49 -28.22487 158.93918 37169 ft 524 kts 98°
2026-04-26 09:49 -28.23514 159.02092 37163 ft 523 kts 98°
2026-04-26 09:50 -28.24537 159.10265 37169 ft 523 kts 98°
2026-04-26 09:50 -28.25551 159.18405 37169 ft 523 kts 98°
2026-04-26 09:51 -28.26561 159.26579 37170 ft 523 kts 98°
2026-04-26 09:51 -28.27564 159.34749 37172 ft 523 kts 98°
2026-04-26 09:52 -28.28563 159.42920 37163 ft 523 kts 98°
2026-04-26 09:52 -28.30053 159.55187 37164 ft 523 kts 98°
2026-04-26 09:53 -28.31040 159.63362 37165 ft 523 kts 98°
2026-04-26 09:53 -28.32015 159.71473 37166 ft 522 kts 98°
2026-04-26 09:54 -28.32999 159.79709 37174 ft 522 kts 98°
2026-04-26 09:54 -28.33961 159.87808 37176 ft 522 kts 98°
2026-04-26 09:55 -28.34927 159.95971 37174 ft 521 kts 97°
2026-04-26 09:55 -28.35888 160.04138 37176 ft 521 kts 97°
2026-04-26 09:56 -28.36841 160.12283 37177 ft 521 kts 97°
2026-04-26 09:56 -28.37790 160.20435 37170 ft 520 kts 97°
2026-04-26 09:57 -28.38734 160.28592 37176 ft 520 kts 97°
2026-04-26 09:57 -28.39672 160.36732 37174 ft 520 kts 97°
2026-04-26 09:58 -28.40598 160.44816 37175 ft 519 kts 97°
2026-04-26 09:58 -28.41525 160.52954 37173 ft 519 kts 97°
2026-04-26 09:59 -28.42448 160.61096 37169 ft 519 kts 97°
2026-04-26 09:59 -28.43366 160.69239 37170 ft 519 kts 97°
2026-04-26 10:00 -28.44280 160.77389 37169 ft 519 kts 97°
2026-04-26 10:00 -28.45188 160.85537 37175 ft 520 kts 96°
2026-04-26 10:01 -28.46086 160.93637 37168 ft 520 kts 96°
2026-04-26 10:01 -28.46991 161.01842 37167 ft 520 kts 96°
2026-04-26 10:02 -28.47880 161.09949 37169 ft 520 kts 96°
2026-04-26 10:02 -28.48771 161.18116 37162 ft 521 kts 96°
2026-04-26 10:03 -28.49657 161.26289 37163 ft 521 kts 96°
2026-04-26 10:03 -28.50539 161.34470 37157 ft 521 kts 96°
2026-04-26 10:04 -28.51415 161.42647 37160 ft 521 kts 96°
2026-04-26 10:04 -28.52287 161.50834 37168 ft 521 kts 96°
2026-04-26 10:05 -28.53158 161.59031 37162 ft 521 kts 96°
2026-04-26 10:05 -28.54014 161.67168 37172 ft 521 kts 96°
2026-04-26 10:06 -28.54871 161.75359 37162 ft 521 kts 96°
2026-04-26 10:06 -28.55724 161.83557 37162 ft 521 kts 95°
2026-04-26 10:07 -28.56572 161.91745 37161 ft 521 kts 95°
2026-04-26 10:07 -28.57413 161.99924 37164 ft 520 kts 95°
2026-04-26 10:08 -28.58245 162.08056 37164 ft 520 kts 95°
2026-04-26 10:08 -28.59075 162.16221 37153 ft 520 kts 95°
2026-04-26 10:09 -28.59902 162.24409 37165 ft 520 kts 95°
2026-04-26 10:09 -28.60723 162.32584 37165 ft 520 kts 95°
2026-04-26 10:10 -28.61538 162.40754 37161 ft 520 kts 95°
2026-04-26 10:10 -28.62350 162.48939 37167 ft 520 kts 95°
2026-04-26 10:11 -28.63158 162.57143 37157 ft 520 kts 94°
2026-04-26 10:11 -28.63960 162.65331 37153 ft 520 kts 94°
2026-04-26 10:12 -28.64751 162.73456 37155 ft 520 kts 94°
2026-04-26 10:12 -28.65543 162.81645 37165 ft 520 kts 94°
2026-04-26 10:13 -28.66331 162.89846 37164 ft 520 kts 94°
2026-04-26 10:13 -28.67115 162.98046 37154 ft 521 kts 94°
2026-04-26 10:14 -28.67891 163.06237 37156 ft 521 kts 94°
2026-04-26 10:14 -28.68660 163.14445 37157 ft 521 kts 94°
2026-04-26 10:15 -28.69424 163.22654 37157 ft 521 kts 93°
2026-04-26 10:15 -28.70184 163.30862 37155 ft 522 kts 93°
2026-04-26 10:16 -28.70936 163.39042 37161 ft 522 kts 93°
2026-04-26 10:16 -28.71689 163.47290 37155 ft 523 kts 93°
2026-04-26 10:17 -28.72437 163.55535 37159 ft 523 kts 92°
2026-04-26 10:17 -28.73181 163.63795 37153 ft 524 kts 92°
2026-04-26 10:18 -28.73921 163.72064 37158 ft 525 kts 92°
2026-04-26 10:18 -28.74656 163.80335 37152 ft 525 kts 92°
2026-04-26 10:19 -28.75388 163.88627 37156 ft 526 kts 92°
2026-04-26 10:19 -28.76115 163.96922 37154 ft 526 kts 92°
2026-04-26 10:20 -28.76716 164.03831 37156 ft 526 kts 92°
2026-04-26 10:20 -28.77551 164.13484 37154 ft 527 kts 92°
2026-04-26 10:21 -28.78264 164.21804 37152 ft 527 kts 92°
2026-04-26 10:21 -28.78972 164.30119 37152 ft 527 kts 91°
2026-04-26 10:22 -28.79676 164.38454 37155 ft 527 kts 91°
2026-04-26 10:22 -28.80375 164.46795 37152 ft 528 kts 91°
2026-04-26 10:23 -28.81069 164.55127 37156 ft 528 kts 91°
2026-04-26 10:23 -28.81754 164.63413 37151 ft 528 kts 91°
2026-04-26 10:24 -28.82438 164.71759 37153 ft 529 kts 91°
2026-04-26 10:24 -28.83119 164.80123 37154 ft 529 kts 91°
2026-04-26 10:25 -28.83794 164.88487 37153 ft 530 kts 91°
2026-04-26 10:25 -28.84465 164.96859 37153 ft 530 kts 91°
2026-04-26 10:26 -28.85131 165.05241 37154 ft 530 kts 91°
2026-04-26 10:26 -28.85793 165.13632 37152 ft 531 kts 90°
2026-04-26 10:27 -28.86449 165.22018 37154 ft 531 kts 90°
2026-04-26 10:27 -28.87097 165.30369 37149 ft 532 kts 90°
2026-04-26 10:28 -28.87744 165.38778 37153 ft 532 kts 90°
2026-04-26 10:28 -28.88388 165.47222 37517 ft 535 kts 90°
2026-04-26 10:29 -28.88709 165.51450 37897 ft 534 kts 90°
2026-04-26 10:29 -28.89029 165.55666 38287 ft 533 kts 90°
2026-04-26 10:29 -28.89346 165.59874 38654 ft 532 kts 90°
2026-04-26 10:29 -28.89661 165.64076 38947 ft 532 kts 90°
2026-04-26 10:30 -28.89974 165.68277 39088 ft 533 kts 90°
2026-04-26 10:30 -28.90288 165.72515 39120 ft 535 kts 90°
2026-04-26 10:30 -28.90912 165.80951 39136 ft 533 kts 89°
2026-04-26 10:31 -28.91536 165.89375 39139 ft 530 kts 89°
2026-04-26 10:31 -28.92153 165.97746 39140 ft 529 kts 89°
2026-04-26 10:32 -28.92763 166.06098 39144 ft 528 kts 89°
2026-04-26 10:32 -28.93363 166.14415 39143 ft 529 kts 89°
2026-04-26 10:33 -28.93964 166.22800 39148 ft 530 kts 89°
2026-04-26 10:33 -28.94561 166.31205 39146 ft 531 kts 89°
2026-04-26 10:34 -28.95054 166.38210 39141 ft 532 kts 88°
2026-04-26 10:34 -28.95741 166.48035 39139 ft 534 kts 88°
2026-04-26 10:35 -28.96232 166.55127 39139 ft 535 kts 88°
2026-04-26 10:35 -28.96908 166.64975 39136 ft 536 kts 88°
2026-04-26 10:36 -28.97388 166.72041 39141 ft 537 kts 88°
2026-04-26 10:36 -28.97961 166.80546 39133 ft 537 kts 88°
2026-04-26 10:37 -28.98530 166.89061 39144 ft 537 kts 87°
2026-04-26 10:37 -28.99094 166.97600 39139 ft 538 kts 87°
2026-04-26 10:38 -28.99649 167.06067 39142 ft 538 kts 87°
2026-04-26 10:38 -29.00202 167.14599 39139 ft 538 kts 87°
2026-04-26 10:39 -29.00750 167.23132 39137 ft 538 kts 86°
2026-04-26 10:39 -29.01292 167.31675 39139 ft 538 kts 86°
2026-04-26 10:40 -29.01830 167.40217 39136 ft 539 kts 86°
2026-04-26 10:40 -29.02358 167.48698 39137 ft 539 kts 86°
2026-04-26 10:41 -29.02530 167.51467 39134 ft 539 kts 86°
2026-04-26 10:41 -29.02999 167.59984 39133 ft 538 kts 85°
2026-04-26 10:42 -29.03433 167.68515 39128 ft 538 kts 85°
2026-04-26 10:42 -29.03873 167.77066 39134 ft 539 kts 85°
2026-04-26 10:43 -29.04315 167.85617 39128 ft 539 kts 84°
2026-04-26 10:43 -29.04538 167.94095 39135 ft 531 kts 78°
2026-04-26 10:44 -29.03705 168.02353 39132 ft 520 kts 71°
2026-04-26 10:44 -29.02631 168.10534 39132 ft 521 kts 71°
2026-04-26 10:45 -29.01576 168.18742 39129 ft 522 kts 71°
2026-04-26 10:45 -29.00552 168.26961 39127 ft 523 kts 71°
2026-04-26 10:46 -28.99535 168.35196 39128 ft 524 kts 71°
2026-04-26 10:46 -28.98511 168.43441 39125 ft 524 kts 71°
2026-04-26 10:47 -28.97480 168.51679 39122 ft 524 kts 71°
2026-04-26 10:47 -28.96448 168.59876 39119 ft 524 kts 71°
2026-04-26 10:48 -28.95404 168.68124 39119 ft 524 kts 70°
2026-04-26 10:48 -28.94350 168.76368 39124 ft 524 kts 76°
2026-04-26 10:49 -28.93302 168.84594 39114 ft 521 kts 76°
2026-04-26 10:49 -28.92255 168.92763 39107 ft 519 kts 76°
2026-04-26 10:50 -28.91383 168.99523 39104 ft 517 kts 76°
2026-04-26 10:50 -28.90155 169.08986 39110 ft 515 kts 76°
2026-04-26 10:51 -28.88573 169.21094 39111 ft 515 kts 76°
2026-04-26 10:52 -28.87517 169.29137 39114 ft 515 kts 76°
2026-04-26 10:52 -28.86448 169.37232 39111 ft 516 kts 76°
2026-04-26 10:53 -28.85372 169.45350 39112 ft 518 kts 76°
2026-04-26 10:53 -28.84291 169.53473 39109 ft 519 kts 76°
2026-04-26 10:54 -28.82653 169.65696 39104 ft 520 kts 76°
2026-04-26 10:54 -28.81560 169.73815 39100 ft 520 kts 76°
2026-04-26 10:55 -28.80456 169.81970 39103 ft 521 kts 76°
2026-04-26 10:55 -28.79345 169.90142 39102 ft 521 kts 75°
2026-04-26 10:56 -28.78229 169.98309 39100 ft 521 kts 75°
2026-04-26 10:56 -28.77108 170.06479 39095 ft 521 kts 75°
2026-04-26 10:57 -28.75981 170.14649 39095 ft 521 kts 75°
2026-04-26 10:57 -28.74856 170.22772 39094 ft 521 kts 75°
2026-04-26 10:58 -28.73722 170.30923 39091 ft 521 kts 75°
2026-04-26 10:58 -28.72581 170.39084 39089 ft 522 kts 75°
2026-04-26 10:59 -28.71435 170.47251 39084 ft 522 kts 75°
2026-04-26 10:59 -28.70283 170.55418 39089 ft 522 kts 75°
2026-04-26 11:00 -28.69124 170.63595 39087 ft 523 kts 75°
2026-04-26 11:00 -28.67969 170.71713 39084 ft 523 kts 74°
2026-04-26 11:01 -28.66799 170.79898 39085 ft 524 kts 74°
2026-04-26 11:01 -28.65620 170.88106 39082 ft 525 kts 74°
2026-04-26 11:02 -28.64436 170.96315 39083 ft 526 kts 74°
2026-04-26 11:02 -28.63246 171.04534 39080 ft 527 kts 74°
2026-04-26 11:03 -28.62048 171.12768 39081 ft 528 kts 73°
2026-04-26 11:03 -28.60842 171.21024 39082 ft 529 kts 73°
2026-04-26 11:04 -28.59629 171.29287 39076 ft 530 kts 73°
2026-04-26 11:04 -28.58409 171.37562 39073 ft 531 kts 73°
2026-04-26 11:05 -28.57190 171.45802 39084 ft 531 kts 73°
2026-04-26 11:05 -28.55956 171.54102 39074 ft 532 kts 73°
2026-04-26 11:06 -28.54916 171.61065 39072 ft 533 kts 73°
2026-04-26 11:06 -28.53471 171.70713 39067 ft 533 kts 72°
2026-04-26 11:07 -28.52215 171.79051 39068 ft 533 kts 72°
2026-04-26 11:07 -28.50957 171.87369 39070 ft 533 kts 72°
2026-04-26 11:08 -28.49704 171.95619 39079 ft 533 kts 72°
2026-04-26 11:08 -28.48435 172.03938 39079 ft 533 kts 72°
2026-04-26 11:09 -28.47162 172.12251 39082 ft 533 kts 72°
2026-04-26 11:09 -28.45884 172.20557 39075 ft 533 kts 72°
2026-04-26 11:10 -28.44602 172.28856 39081 ft 533 kts 72°
2026-04-26 11:10 -28.43316 172.37147 39075 ft 533 kts 71°
2026-04-26 11:11 -28.42030 172.45406 39076 ft 533 kts 71°
2026-04-26 11:11 -28.40731 172.53712 39082 ft 534 kts 71°
2026-04-26 11:12 -28.39427 172.62015 39078 ft 534 kts 71°
2026-04-26 11:12 -28.38118 172.70313 39080 ft 534 kts 71°
2026-04-26 11:13 -28.36803 172.78618 39078 ft 534 kts 71°
2026-04-26 11:13 -28.35483 172.86925 39081 ft 534 kts 71°
2026-04-26 11:14 -28.34164 172.95184 39082 ft 534 kts 71°
2026-04-26 11:14 -28.33058 173.02086 39074 ft 535 kts 71°
2026-04-26 11:15 -28.31498 173.11785 39082 ft 535 kts 71°
2026-04-26 11:15 -28.30155 173.20097 39082 ft 535 kts 71°
2026-04-26 11:16 -28.28807 173.28406 39082 ft 535 kts 71°
2026-04-26 11:16 -28.27463 173.36662 39081 ft 536 kts 71°
2026-04-26 11:17 -28.26103 173.44980 39080 ft 536 kts 71°
2026-04-26 11:17 -28.24739 173.53289 39083 ft 536 kts 71°
2026-04-26 11:18 -28.23368 173.61612 39075 ft 536 kts 71°
2026-04-26 11:18 -28.21993 173.69923 39074 ft 537 kts 70°
2026-04-26 11:19 -28.20610 173.78248 39073 ft 537 kts 70°
2026-04-26 11:19 -28.19233 173.86507 39074 ft 537 kts 70°
2026-04-26 11:20 -28.18066 173.93485 39073 ft 537 kts 70°
2026-04-26 11:20 -28.16442 174.03154 39075 ft 537 kts 70°
2026-04-26 11:21 -28.15037 174.11479 39073 ft 537 kts 70°
2026-04-26 11:21 -28.13630 174.19795 39077 ft 537 kts 70°
2026-04-26 11:22 -28.12219 174.28097 39076 ft 537 kts 70°
2026-04-26 11:22 -28.11041 174.34999 39075 ft 537 kts 70°
2026-04-26 11:23 -28.09391 174.44642 39077 ft 536 kts 70°
2026-04-26 11:23 -28.07965 174.52936 39080 ft 536 kts 69°
2026-04-26 11:24 -28.06778 174.59813 39074 ft 536 kts 69°
2026-04-26 11:24 -28.05343 174.68103 39078 ft 536 kts 69°
2026-04-26 11:25 -28.03905 174.76381 39074 ft 536 kts 69°
2026-04-26 11:25 -28.02460 174.84665 39075 ft 537 kts 69°
2026-04-26 11:26 -28.01008 174.92962 39073 ft 537 kts 69°
2026-04-26 11:26 -27.99550 175.01260 39076 ft 538 kts 69°
2026-04-26 11:27 -27.98084 175.09574 39076 ft 539 kts 69°
2026-04-26 11:27 -27.96612 175.17891 39075 ft 539 kts 69°
2026-04-26 11:28 -27.95135 175.26205 39070 ft 539 kts 69°
2026-04-26 11:28 -27.93653 175.34521 39066 ft 540 kts 69°
2026-04-26 11:29 -27.92166 175.42836 39068 ft 539 kts 70°
2026-04-26 11:29 -27.90672 175.51156 39059 ft 539 kts 70°
2026-04-26 11:30 -27.89187 175.59399 39066 ft 538 kts 70°
2026-04-26 11:30 -27.87687 175.67696 39061 ft 537 kts 70°
2026-04-26 11:31 -27.86187 175.75962 39056 ft 536 kts 70°
2026-04-26 11:31 -27.84687 175.84193 39058 ft 534 kts 70°
2026-04-26 11:32 -27.83184 175.92417 39057 ft 533 kts 70°
2026-04-26 11:32 -27.81678 176.00623 39054 ft 533 kts 70°
2026-04-26 11:33 -27.80169 176.08823 39057 ft 533 kts 70°
2026-04-26 11:33 -27.78664 176.16977 39055 ft 533 kts 70°
2026-04-26 11:34 -27.77173 176.25193 39055 ft 534 kts 70°
2026-04-26 11:34 -27.75692 176.33420 39057 ft 535 kts 70°
2026-04-26 11:35 -27.74202 176.41658 39053 ft 536 kts 70°
2026-04-26 11:35 -27.72699 176.49916 39055 ft 537 kts 70°
2026-04-26 11:36 -27.71186 176.58191 39049 ft 538 kts 70°
2026-04-26 11:36 -27.69668 176.66465 39052 ft 539 kts 70°
2026-04-26 11:37 -27.68142 176.74757 39048 ft 540 kts 70°
2026-04-26 11:37 -27.66621 176.82994 39051 ft 540 kts 70°
2026-04-26 11:38 -27.65083 176.91293 39049 ft 540 kts 70°
2026-04-26 11:38 -27.63540 176.99591 39049 ft 540 kts 70°
2026-04-26 11:39 -27.61989 177.07899 39046 ft 540 kts 69°
2026-04-26 11:39 -27.60437 177.16187 39043 ft 540 kts 69°
2026-04-26 11:40 -27.58880 177.24474 39045 ft 540 kts 69°
2026-04-26 11:40 -27.57319 177.32751 39043 ft 540 kts 69°
2026-04-26 11:42 -27.51031 177.65807 39044 ft 540 kts 69°
2026-04-26 11:43 -27.49444 177.74078 39041 ft 540 kts 69°
2026-04-26 11:43 -27.47866 177.82276 39044 ft 540 kts 69°
2026-04-26 11:44 -27.46267 177.90554 39041 ft 540 kts 69°
2026-04-26 11:44 -27.44664 177.98827 39035 ft 540 kts 69°
2026-04-26 11:45 -27.43057 178.07093 39040 ft 540 kts 69°
2026-04-26 11:45 -27.41442 178.15374 39041 ft 541 kts 69°
2026-04-26 11:46 -27.39824 178.23643 39043 ft 541 kts 69°
2026-04-26 11:46 -27.38200 178.31913 39046 ft 541 kts 69°
2026-04-26 11:47 -27.36580 178.40139 39043 ft 542 kts 69°
2026-04-26 11:47 -27.34942 178.48424 39042 ft 542 kts 69°
2026-04-26 11:48 -27.33301 178.56698 39039 ft 542 kts 69°
2026-04-26 11:48 -27.31654 178.64979 39040 ft 543 kts 69°
2026-04-26 11:49 -27.30001 178.73262 39039 ft 543 kts 69°
2026-04-26 11:49 -27.28351 178.81501 39040 ft 543 kts 69°
2026-04-26 11:50 -27.26684 178.89797 39038 ft 544 kts 69°
2026-04-26 11:50 -27.25015 178.98082 39040 ft 544 kts 69°
2026-04-26 11:51 -27.23337 179.06383 39038 ft 545 kts 69°
2026-04-26 11:51 -27.21653 179.14685 39044 ft 545 kts 69°
2026-04-26 11:52 -27.20247 179.21595 39039 ft 545 kts 69°
2026-04-26 11:52 -27.18267 179.31297 39037 ft 545 kts 69°
2026-04-26 11:53 -27.16566 179.39605 39040 ft 546 kts 69°
2026-04-26 11:54 -27.14015 179.52010 39036 ft 546 kts 69°
2026-04-26 11:54 -27.12303 179.60306 39036 ft 546 kts 69°
2026-04-26 11:55 -27.10582 179.68618 39035 ft 546 kts 69°
2026-04-26 11:55 -27.08857 179.76921 39038 ft 546 kts 69°
2026-04-26 11:56 -27.07123 179.85242 39038 ft 547 kts 69°
2026-04-26 11:56 -27.05385 179.93560 39035 ft 548 kts 69°
2026-04-26 11:57 -27.03640 -179.98122 39034 ft 548 kts 69°
2026-04-26 11:57 -27.01901 -179.89853 39038 ft 549 kts 69°
2026-04-26 11:58 -27.00164 -179.81617 39031 ft 549 kts 69°
2026-04-26 11:58 -26.98401 -179.73284 39037 ft 549 kts 69°
2026-04-26 11:59 -26.96632 -179.64951 39034 ft 549 kts 69°
2026-04-26 11:59 -26.94858 -179.56616 39032 ft 549 kts 69°
2026-04-26 12:00 -26.93089 -179.48335 39034 ft 549 kts 69°
2026-04-26 12:00 -26.91308 -179.40020 39033 ft 548 kts 69°
2026-04-26 12:01 -26.89523 -179.31712 39034 ft 548 kts 69°
2026-04-26 12:01 -26.87735 -179.23414 39033 ft 547 kts 69°
2026-04-26 12:02 -26.85944 -179.15128 39030 ft 547 kts 69°
2026-04-26 12:02 -26.84151 -179.06854 39034 ft 546 kts 69°
2026-04-26 12:03 -26.82355 -178.98601 39034 ft 546 kts 69°
2026-04-26 12:03 -26.80554 -178.90348 39035 ft 546 kts 69°
2026-04-26 12:04 -26.78761 -178.82154 39035 ft 545 kts 70°
2026-04-26 12:04 -26.76953 -178.73914 39024 ft 545 kts 70°
2026-04-26 12:05 -26.75140 -178.65672 39039 ft 545 kts 70°
2026-04-26 12:05 -26.73322 -178.57434 39032 ft 546 kts 70°
2026-04-26 12:06 -26.71498 -178.49192 39036 ft 546 kts 70°
2026-04-26 12:06 -26.69665 -178.40938 39033 ft 546 kts 70°
2026-04-26 12:07 -26.67829 -178.32687 39032 ft 547 kts 70°
2026-04-26 12:07 -26.65986 -178.24434 39028 ft 547 kts 70°
2026-04-26 12:08 -26.64138 -178.16179 39033 ft 547 kts 70°
2026-04-26 12:08 -26.62284 -178.07923 39029 ft 547 kts 70°
2026-04-26 12:09 -26.60440 -177.99734 39029 ft 547 kts 70°
2026-04-26 12:09 -26.58576 -177.91480 39033 ft 547 kts 69°
2026-04-26 12:10 -26.56706 -177.83224 39032 ft 547 kts 69°
2026-04-26 12:10 -26.54834 -177.74983 39030 ft 547 kts 69°
2026-04-26 12:11 -26.52955 -177.66736 39031 ft 547 kts 69°
2026-04-26 12:11 -26.51073 -177.58496 39032 ft 547 kts 69°
2026-04-26 12:12 -26.49506 -177.51657 39030 ft 548 kts 69°
2026-04-26 12:12 -26.47613 -177.43415 39034 ft 548 kts 69°
2026-04-26 12:13 -26.45405 -177.33828 39033 ft 548 kts 69°
2026-04-26 12:13 -26.43813 -177.26936 39035 ft 548 kts 69°
2026-04-26 12:14 -26.41903 -177.18690 39038 ft 548 kts 69°
2026-04-26 12:14 -26.40005 -177.10517 39040 ft 549 kts 69°
2026-04-26 12:15 -26.38086 -177.02277 39036 ft 549 kts 69°
2026-04-26 12:15 -26.36162 -176.94038 39042 ft 549 kts 69°
2026-04-26 12:16 -26.34232 -176.85794 39039 ft 549 kts 69°
2026-04-26 12:16 -26.32298 -176.77560 39041 ft 549 kts 69°
2026-04-26 12:17 -26.30360 -176.69333 39041 ft 549 kts 69°
2026-04-26 12:17 -26.28416 -176.61100 39042 ft 549 kts 69°
2026-04-26 12:18 -26.26482 -176.52931 39043 ft 549 kts 69°
2026-04-26 12:18 -26.24518 -176.44660 39041 ft 549 kts 69°
2026-04-26 12:19 -26.22577 -176.36505 39041 ft 548 kts 69°
2026-04-26 12:19 -26.20618 -176.28301 39039 ft 548 kts 69°
2026-04-26 12:20 -26.18650 -176.20080 39040 ft 548 kts 69°
2026-04-26 12:20 -26.16683 -176.11883 39036 ft 548 kts 69°
2026-04-26 12:21 -26.14711 -176.03690 39037 ft 548 kts 69°
2026-04-26 12:21 -26.12732 -175.95491 39034 ft 548 kts 69°
2026-04-26 12:22 -26.10754 -175.87313 39038 ft 548 kts 69°
2026-04-26 12:22 -26.08781 -175.79184 39033 ft 548 kts 69°
2026-04-26 12:23 -26.06790 -175.70999 39035 ft 547 kts 69°
2026-04-26 12:23 -26.04797 -175.62825 39036 ft 547 kts 69°
2026-04-26 12:24 -26.02796 -175.54643 39034 ft 547 kts 69°
2026-04-26 12:24 -26.00795 -175.46483 39037 ft 547 kts 69°
2026-04-26 12:25 -25.97798 -175.34299 39033 ft 547 kts 69°
2026-04-26 12:25 -25.95784 -175.26137 39037 ft 547 kts 69°
2026-04-26 12:26 -25.93769 -175.17994 39039 ft 547 kts 69°
2026-04-26 12:26 -25.91749 -175.09849 39038 ft 546 kts 69°
2026-04-26 12:27 -25.89722 -175.01696 39039 ft 546 kts 69°
2026-04-26 12:27 -25.87706 -174.93613 39037 ft 546 kts 69°
2026-04-26 12:28 -25.85676 -174.85502 39039 ft 545 kts 69°
2026-04-26 12:28 -25.83640 -174.77383 39036 ft 545 kts 69°
2026-04-26 12:29 -25.81602 -174.69275 39040 ft 545 kts 69°
2026-04-26 12:30 -25.78538 -174.57118 39042 ft 545 kts 69°
2026-04-26 12:30 -25.76493 -174.49031 39042 ft 544 kts 69°
2026-04-26 12:31 -25.73428 -174.36954 39040 ft 544 kts 69°
2026-04-26 12:31 -25.71373 -174.28879 39039 ft 545 kts 69°
2026-04-26 12:32 -25.69308 -174.20787 39042 ft 545 kts 69°
2026-04-26 12:33 -25.66202 -174.08651 39054 ft 545 kts 69°
2026-04-26 12:33 -25.64126 -174.00564 39043 ft 546 kts 69°
2026-04-26 12:34 -25.62042 -173.92467 39048 ft 546 kts 69°
2026-04-26 12:34 -25.59968 -173.84431 39048 ft 546 kts 69°
2026-04-26 12:35 -25.57877 -173.76345 39042 ft 546 kts 69°
2026-04-26 12:35 -25.55777 -173.68250 39049 ft 547 kts 69°
2026-04-26 12:36 -25.53672 -173.60149 39054 ft 547 kts 69°
2026-04-26 12:36 -25.51565 -173.52067 39037 ft 547 kts 69°
2026-04-26 12:37 -25.49450 -173.43969 39043 ft 547 kts 69°
2026-04-26 12:37 -25.47336 -173.35895 39055 ft 547 kts 69°
2026-04-26 12:38 -25.45212 -173.27806 39053 ft 547 kts 69°
2026-04-26 12:38 -25.43086 -173.19727 39050 ft 546 kts 69°
2026-04-26 12:39 -25.40971 -173.11710 39034 ft 546 kts 69°
2026-04-26 12:39 -25.38836 -173.03634 39047 ft 546 kts 69°
2026-04-26 12:40 -25.36697 -172.95564 39044 ft 546 kts 69°
2026-04-26 12:40 -25.34556 -172.87505 39043 ft 546 kts 69°
2026-04-26 12:41 -25.32406 -172.79435 39046 ft 546 kts 69°
2026-04-26 12:41 -25.30271 -172.71439 39043 ft 546 kts 69°
2026-04-26 12:42 -25.28118 -172.63394 39045 ft 546 kts 69°
2026-04-26 12:42 -25.25956 -172.55334 39047 ft 546 kts 69°
2026-04-26 12:43 -25.23792 -172.47285 39046 ft 546 kts 69°
2026-04-26 12:43 -25.21624 -172.39241 39049 ft 547 kts 69°
2026-04-26 12:44 -25.19449 -172.31192 39044 ft 547 kts 69°
2026-04-26 12:44 -25.17272 -172.23151 39043 ft 547 kts 69°
2026-04-26 12:45 -25.15089 -172.15109 39041 ft 547 kts 69°
2026-04-26 12:45 -25.12898 -172.07058 39046 ft 547 kts 69°
2026-04-26 12:46 -25.10704 -171.99014 39044 ft 547 kts 69°
2026-04-26 12:46 -25.08519 -171.91021 39040 ft 547 kts 69°
2026-04-26 12:47 -25.06314 -171.82974 39042 ft 547 kts 69°
2026-04-26 12:47 -25.04107 -171.74936 39041 ft 548 kts 69°
2026-04-26 12:48 -25.01897 -171.66906 39044 ft 548 kts 69°
2026-04-26 12:48 -24.99680 -171.58874 39042 ft 548 kts 69°
2026-04-26 12:49 -24.97457 -171.50833 39044 ft 548 kts 69°
2026-04-26 12:49 -24.95229 -171.42798 39047 ft 548 kts 69°
2026-04-26 12:50 -24.92999 -171.34769 39043 ft 548 kts 69°
2026-04-26 12:50 -24.90765 -171.26746 39046 ft 548 kts 69°
2026-04-26 12:51 -24.88540 -171.18772 39043 ft 548 kts 69°
2026-04-26 12:51 -24.86295 -171.10747 39038 ft 548 kts 69°
2026-04-26 12:52 -24.84045 -171.02721 39042 ft 548 kts 69°
2026-04-26 12:52 -24.81793 -170.94707 39041 ft 548 kts 69°
2026-04-26 12:53 -24.79535 -170.86687 39039 ft 548 kts 69°
2026-04-26 12:53 -24.77287 -170.78722 39041 ft 548 kts 69°
2026-04-26 12:54 -24.75017 -170.70698 39041 ft 549 kts 69°
2026-04-26 12:54 -24.72741 -170.62671 39042 ft 549 kts 69°
2026-04-26 12:55 -24.70463 -170.54655 39046 ft 549 kts 69°
2026-04-26 12:55 -24.68178 -170.46632 39044 ft 550 kts 69°
2026-04-26 12:56 -24.65890 -170.38615 39041 ft 550 kts 69°
2026-04-26 12:56 -24.63608 -170.30635 39045 ft 550 kts 69°
2026-04-26 12:57 -24.61306 -170.22606 39048 ft 550 kts 69°
2026-04-26 12:57 -24.59002 -170.14585 39045 ft 550 kts 69°
2026-04-26 12:58 -24.55539 -170.02561 39046 ft 551 kts 69°
2026-04-26 12:58 -24.53221 -169.94541 39039 ft 551 kts 69°
2026-04-26 12:59 -24.50893 -169.86514 39043 ft 551 kts 69°
2026-04-26 12:59 -24.48566 -169.78505 39045 ft 551 kts 69°
2026-04-26 13:00 -24.46250 -169.70548 39040 ft 551 kts 69°
2026-04-26 13:00 -24.43914 -169.62538 39042 ft 551 kts 69°
2026-04-26 13:01 -24.41571 -169.54520 39038 ft 551 kts 69°
2026-04-26 13:01 -24.39227 -169.46521 39042 ft 551 kts 69°
2026-04-26 13:02 -24.37274 -169.39866 39042 ft 551 kts 69°
2026-04-26 13:02 -24.34929 -169.31891 39039 ft 551 kts 69°
2026-04-26 13:03 -24.32571 -169.23892 39039 ft 551 kts 69°
2026-04-26 13:03 -24.30207 -169.15889 39038 ft 551 kts 69°
2026-04-26 13:04 -24.27855 -169.07942 39035 ft 551 kts 69°
2026-04-26 13:04 -24.25490 -168.99969 39036 ft 551 kts 69°
2026-04-26 13:05 -24.23115 -168.91979 39034 ft 551 kts 69°
2026-04-26 13:05 -24.20737 -168.83997 39039 ft 551 kts 69°
2026-04-26 13:06 -24.18353 -168.76009 39043 ft 551 kts 69°
2026-04-26 13:06 -24.15961 -168.68014 39038 ft 552 kts 69°
2026-04-26 13:07 -24.13567 -168.60027 39038 ft 552 kts 70°
2026-04-26 13:07 -24.11184 -168.52097 39040 ft 552 kts 70°
2026-04-26 13:08 -24.08778 -168.44104 39037 ft 552 kts 70°
2026-04-26 13:08 -24.06371 -168.36124 39039 ft 552 kts 70°
2026-04-26 13:09 -24.03963 -168.28159 39041 ft 552 kts 70°
2026-04-26 13:09 -24.01548 -168.20186 39040 ft 551 kts 70°
2026-04-26 13:10 -23.99131 -168.12224 39038 ft 551 kts 70°
2026-04-26 13:10 -23.96725 -168.04317 39039 ft 551 kts 70°
2026-04-26 13:11 -23.94300 -167.96363 39042 ft 551 kts 70°
2026-04-26 13:11 -23.91871 -167.88408 39041 ft 552 kts 70°
2026-04-26 13:12 -23.89437 -167.80459 39039 ft 552 kts 70°
2026-04-26 13:12 -23.86997 -167.72502 39040 ft 552 kts 70°
2026-04-26 13:13 -23.84554 -167.64553 39039 ft 551 kts 70°
2026-04-26 13:13 -23.82109 -167.56615 39035 ft 551 kts 70°
2026-04-26 13:14 -23.79660 -167.48677 39037 ft 551 kts 70°
2026-04-26 13:14 -23.77206 -167.40744 39036 ft 551 kts 70°
2026-04-26 13:15 -23.74767 -167.32872 39034 ft 550 kts 70°
2026-04-26 13:15 -23.72312 -167.24965 39041 ft 550 kts 70°
2026-04-26 13:16 -23.69856 -167.17068 39039 ft 549 kts 70°
2026-04-26 13:16 -23.67399 -167.09188 39038 ft 548 kts 70°
2026-04-26 13:17 -23.63706 -166.97371 39036 ft 547 kts 70°
2026-04-26 13:18 -23.60012 -166.85585 39037 ft 547 kts 70°
2026-04-26 13:19 -23.56331 -166.73876 39040 ft 546 kts 70°
2026-04-26 13:19 -23.53865 -166.66049 39036 ft 546 kts 70°
2026-04-26 13:20 -23.51397 -166.58233 39039 ft 545 kts 70°
2026-04-26 13:20 -23.48926 -166.50425 39038 ft 545 kts 70°
2026-04-26 13:21 -23.46450 -166.42612 39039 ft 544 kts 70°
2026-04-26 13:21 -23.43973 -166.34813 39038 ft 544 kts 70°
2026-04-26 13:22 -23.41510 -166.27074 39041 ft 544 kts 70°
2026-04-26 13:22 -23.39032 -166.19301 39035 ft 543 kts 70°
2026-04-26 13:23 -23.36546 -166.11521 39038 ft 543 kts 70°
2026-04-26 13:23 -23.34065 -166.03768 39036 ft 543 kts 70°
2026-04-26 13:24 -23.31574 -165.96000 39035 ft 543 kts 71°
2026-04-26 13:24 -23.29101 -165.88304 39034 ft 542 kts 71°
2026-04-26 13:25 -23.26609 -165.80560 39031 ft 542 kts 71°
2026-04-26 13:25 -23.24111 -165.72817 39032 ft 542 kts 71°
2026-04-26 13:26 -23.21611 -165.65079 39028 ft 542 kts 71°
2026-04-26 13:26 -23.19111 -165.57354 39034 ft 542 kts 71°
2026-04-26 13:27 -23.16645 -165.49751 39032 ft 541 kts 71°
2026-04-26 13:27 -23.14136 -165.42031 39033 ft 541 kts 71°
2026-04-26 13:28 -23.11621 -165.34304 39032 ft 541 kts 70°
2026-04-26 13:28 -23.09112 -165.26609 39032 ft 541 kts 70°
2026-04-26 13:29 -23.06590 -165.18892 39029 ft 542 kts 70°
2026-04-26 13:29 -23.04083 -165.11231 39031 ft 542 kts 70°
2026-04-26 13:30 -23.01557 -165.03526 39031 ft 542 kts 70°
2026-04-26 13:30 -22.99031 -164.95814 39031 ft 542 kts 71°
2026-04-26 13:31 -22.96528 -164.88108 39032 ft 542 kts 71°
2026-04-26 13:31 -22.94023 -164.80386 39032 ft 542 kts 71°
2026-04-26 13:32 -22.91515 -164.72681 39033 ft 542 kts 71°
2026-04-26 13:32 -22.89018 -164.65031 39034 ft 542 kts 71°
2026-04-26 13:33 -22.86499 -164.57331 39033 ft 541 kts 71°
2026-04-26 13:33 -22.83977 -164.49634 39033 ft 541 kts 71°
2026-04-26 13:34 -22.81455 -164.41950 39034 ft 541 kts 70°
2026-04-26 13:34 -22.78928 -164.34266 39030 ft 541 kts 70°
2026-04-26 13:35 -22.76394 -164.26577 39029 ft 541 kts 70°
2026-04-26 13:35 -22.73856 -164.18886 39032 ft 541 kts 70°
2026-04-26 13:36 -22.71317 -164.11206 39031 ft 541 kts 70°
2026-04-26 13:36 -22.68789 -164.03576 39023 ft 542 kts 70°
2026-04-26 13:37 -22.66237 -163.95885 39028 ft 542 kts 70°
2026-04-26 13:37 -22.63683 -163.88204 39027 ft 542 kts 70°
2026-04-26 13:38 -22.61129 -163.80534 39027 ft 542 kts 70°
2026-04-26 13:38 -22.58564 -163.72848 39026 ft 543 kts 70°
2026-04-26 13:39 -22.55997 -163.65167 39026 ft 543 kts 70°
2026-04-26 13:39 -22.53426 -163.57491 39025 ft 543 kts 70°
2026-04-26 13:40 -22.50851 -163.49814 39022 ft 543 kts 70°
2026-04-26 13:40 -22.48271 -163.42137 39034 ft 543 kts 70°
2026-04-26 13:41 -22.45702 -163.34507 39022 ft 543 kts 70°
2026-04-26 13:41 -22.43115 -163.26834 39019 ft 543 kts 70°
2026-04-26 13:42 -22.40522 -163.19160 39023 ft 543 kts 70°
2026-04-26 13:42 -22.37929 -163.11499 39021 ft 543 kts 70°
2026-04-26 13:43 -22.35333 -163.03841 39019 ft 543 kts 70°
2026-04-26 13:43 -22.32732 -162.96183 39020 ft 543 kts 69°
2026-04-26 13:44 -22.30130 -162.88535 39016 ft 543 kts 69°
2026-04-26 13:44 -22.27519 -162.80875 39025 ft 543 kts 69°
2026-04-26 13:45 -22.24924 -162.73275 39022 ft 542 kts 69°
2026-04-26 13:45 -22.22307 -162.65622 39018 ft 542 kts 69°
2026-04-26 13:46 -22.19693 -162.57992 39031 ft 542 kts 69°
2026-04-26 13:46 -22.17071 -162.50353 39013 ft 542 kts 69°
2026-04-26 13:47 -22.14447 -162.42723 39012 ft 542 kts 69°
2026-04-26 13:47 -22.11824 -162.35106 39031 ft 542 kts 69°
2026-04-26 13:48 -22.09196 -162.27487 39014 ft 542 kts 69°
2026-04-26 13:48 -22.06562 -162.19866 39012 ft 542 kts 69°
2026-04-26 13:49 -22.03946 -162.12308 39020 ft 541 kts 69°
2026-04-26 13:49 -22.01309 -162.04705 39013 ft 541 kts 69°
2026-04-26 13:50 -21.98668 -161.97099 39012 ft 541 kts 69°
2026-04-26 13:50 -21.96466 -161.90772 38550 ft 549 kts 69°
2026-04-26 13:50 -21.95118 -161.86903 37709 ft 551 kts 69°
2026-04-26 13:51 -21.93775 -161.83050 36929 ft 549 kts 69°
2026-04-26 13:51 -21.92433 -161.79203 36142 ft 547 kts 69°
2026-04-26 13:51 -21.91095 -161.75371 35275 ft 547 kts 69°
2026-04-26 13:51 -21.89753 -161.71530 34300 ft 550 kts 69°
2026-04-26 13:52 -21.88400 -161.67664 33180 ft 553 kts 69°
2026-04-26 13:52 -21.87042 -161.63784 32070 ft 554 kts 69°
2026-04-26 13:52 -21.85677 -161.59888 30937 ft 554 kts 69°
2026-04-26 13:52 -21.84337 -161.56066 30082 ft 550 kts 69°
2026-04-26 13:53 -21.82994 -161.52241 29240 ft 542 kts 69°
2026-04-26 13:53 -21.81669 -161.48471 28460 ft 534 kts 69°
2026-04-26 13:53 -21.80363 -161.44759 27743 ft 527 kts 69°
2026-04-26 13:53 -21.79074 -161.41096 27034 ft 520 kts 69°
2026-04-26 13:54 -21.77801 -161.37481 26355 ft 513 kts 69°
2026-04-26 13:54 -21.76541 -161.33904 25679 ft 508 kts 69°
2026-04-26 13:54 -21.75297 -161.30374 24998 ft 503 kts 69°
2026-04-26 13:55 -21.72832 -161.23391 23660 ft 495 kts 70°
2026-04-26 13:55 -21.72025 -161.21107 23132 ft 492 kts 70°
2026-04-26 13:55 -21.69233 -161.13213 21553 ft 480 kts 70°
2026-04-26 13:56 -21.68045 -161.09859 20896 ft 474 kts 69°
2026-04-26 13:56 -21.66895 -161.06612 20283 ft 469 kts 69°
2026-04-26 13:56 -21.65736 -161.03345 19647 ft 465 kts 69°
2026-04-26 13:56 -21.64592 -161.00120 19016 ft 461 kts 69°
2026-04-26 13:57 -21.63447 -160.96900 18390 ft 457 kts 69°
2026-04-26 13:57 -21.62222 -160.93757 17689 ft 454 kts 65°
2026-04-26 13:57 -21.60828 -160.90735 17029 ft 449 kts 62°
2026-04-26 13:57 -21.59375 -160.87789 16405 ft 443 kts 62°
2026-04-26 13:58 -21.57922 -160.84883 15799 ft 438 kts 62°
2026-04-26 13:58 -21.56514 -160.82041 15205 ft 434 kts 62°
2026-04-26 13:58 -21.55117 -160.79178 14609 ft 430 kts 62°
2026-04-26 13:58 -21.53750 -160.76340 13992 ft 426 kts 63°
2026-04-26 13:59 -21.52402 -160.73521 13347 ft 423 kts 63°
2026-04-26 13:59 -21.51072 -160.70730 12711 ft 418 kts 63°
2026-04-26 13:59 -21.49750 -160.67953 12121 ft 414 kts 63°
2026-04-26 14:00 -21.45890 -160.59864 10786 ft 391 kts 64°
2026-04-26 14:00 -21.44672 -160.57316 10606 ft 378 kts 64°
2026-04-26 14:00 -21.43884 -160.55669 10501 ft 369 kts 64°
2026-04-26 14:01 -21.42360 -160.52483 10300 ft 353 kts 64°
2026-04-26 14:01 -21.41253 -160.50168 10146 ft 342 kts 64°
2026-04-26 14:01 -21.40183 -160.47931 10003 ft 332 kts 64°
2026-04-26 14:01 -21.39140 -160.45750 9806 ft 324 kts 64°
2026-04-26 14:02 -21.38121 -160.43620 9570 ft 316 kts 65°
2026-04-26 14:02 -21.37127 -160.41540 9255 ft 310 kts 65°
2026-04-26 14:02 -21.36137 -160.39467 8747 ft 312 kts 65°
2026-04-26 14:02 -21.35156 -160.37415 8420 ft 307 kts 65°
2026-04-26 14:03 -21.34187 -160.35395 8085 ft 302 kts 65°
2026-04-26 14:03 -21.33230 -160.33405 7775 ft 297 kts 65°
2026-04-26 14:03 -21.32291 -160.31451 7461 ft 291 kts 65°
2026-04-26 14:03 -21.31383 -160.29563 7174 ft 286 kts 65°
2026-04-26 14:04 -21.30479 -160.27683 6875 ft 281 kts 65°
2026-04-26 14:04 -21.29593 -160.25841 6585 ft 275 kts 65°
2026-04-26 14:04 -21.28721 -160.24029 6290 ft 270 kts 65°
2026-04-26 14:04 -21.27869 -160.22260 5997 ft 264 kts 65°
2026-04-26 14:05 -21.27036 -160.20530 5718 ft 259 kts 66°
2026-04-26 14:05 -21.26206 -160.18803 5458 ft 260 kts 66°
2026-04-26 14:05 -21.25381 -160.17089 5183 ft 258 kts 66°
2026-04-26 14:05 -21.24565 -160.15389 4919 ft 255 kts 65°
2026-04-26 14:06 -21.23753 -160.13705 4633 ft 252 kts 65°
2026-04-26 14:06 -21.22953 -160.12044 4371 ft 249 kts 66°
2026-04-26 14:06 -21.22158 -160.10397 4107 ft 247 kts 65°
2026-04-26 14:06 -21.21380 -160.08788 3865 ft 246 kts 66°
2026-04-26 14:07 -21.20609 -160.07184 3753 ft 235 kts 68°
2026-04-26 14:07 -21.20224 -160.05594 3613 ft 210 kts 94°
2026-04-26 14:07 -21.20253 -160.04058 3553 ft 204 kts 93°
2026-04-26 14:07 -21.20250 -160.02551 3462 ft 201 kts 93°
2026-04-26 14:08 -21.20248 -160.01051 3330 ft 204 kts 93°
2026-04-26 14:08 -21.20247 -159.99519 3114 ft 205 kts 93°
2026-04-26 14:08 -21.20246 -159.98020 2894 ft 197 kts 93°
2026-04-26 14:08 -21.20247 -159.96573 2682 ft 191 kts 94°
2026-04-26 14:09 -21.20247 -159.95187 2449 ft 180 kts 94°
2026-04-26 14:09 -21.20245 -159.93905 2267 ft 163 kts 95°
2026-04-26 14:09 -21.20247 -159.92720 2038 ft 157 kts 94°
2026-04-26 14:09 -21.20249 -159.91558 1840 ft 155 kts 94°
2026-04-26 14:10 -21.20249 -159.90423 1646 ft 152 kts 95°
2026-04-26 14:10 -21.20250 -159.89305 1432 ft 147 kts 95°
2026-04-26 14:10 -21.20250 -159.88264 1256 ft 134 kts 94°
2026-04-26 14:10 -21.20252 -159.87268 1080 ft 134 kts 95°
2026-04-26 14:11 -21.20266 -159.85302 753 ft 132 kts 95°
2026-04-26 14:11 -21.20249 -159.84298 560 ft 139 kts 93°
2026-04-26 14:11 -21.20248 -159.83263 447 ft 141 kts 93°
2026-04-26 14:12 -21.20252 -159.82209 241 ft 142 kts 92°
2026-04-26 14:12 -21.20255 -159.81153 56 ft 140 kts 92°
2026-04-26 14:12 -21.20263 -159.80171 15 ft 120 kts 89°
2026-04-26 14:12 -21.20279 -159.79431 14 ft 71 kts 116°
2026-04-26 14:13 -21.20623 -159.79326 51 ft 0 kts 71°